[[{"header":{"parameterUnit":"m.s-1","parameterCategory":1,"la1":30.2991,"la2":30.254,"lo1":-89.0895,"lo2":-89.0444,"dy":0.0017,"dx":0.0017,"nx":28,"ny":28,"refTime":"2025-02-12T09:00:00:Z","depth":0,"parameterNumber":2,"parameterNumberName":"U-component_of_WINDS"},"data":[0,0,0,0,0,0,0,0,0,0,0,0,0,0,0,0,0,0,0,0,0,0,0,0,0,0,0,0,0,0,0,0,0,0,0,0,0,0,0,0,0,0,0,0,0,0,0,0,0,0,0,0,0,0,0,0,0,0,-1.4328,-1.4328,0,-1.4374,-1.4374,-1.4375,-1.433,-1.4328,-1.4326,-1.4324,-1.4374,-1.4377,-1.438,0,0,0,0,0,0,0,0,0,0,0,0,0,-1.4203,-1.4205,-1.4328,-1.4328,-1.4329,-1.4373,-1.4374,-1.4375,-1.433,-1.4328,-1.4325,-1.4323,-1.4373,-1.4377,-1.438,0,0,0,0,0,0,0,0,0,0,0,0,0,-1.4254,-1.4206,-1.4328,-1.4312,-1.4311,-1.4373,-1.4374,-1.4375,-1.433,-1.4328,-1.4325,-1.4322,-1.4372,-1.4376,-1.4381,-1.4462,0,0,-1.4394,-1.4396,0,0,0,0,0,0,0,0,-1.4251,-1.4259,-1.4313,-1.4313,-1.4312,-1.4343,-1.4348,-1.4404,-1.4331,-1.4323,-1.4324,-1.4321,-1.4366,-1.4371,-1.4385,-1.4464,-1.4466,-1.4395,-1.4397,-1.4399,-1.4401,0,0,0,0,0,0,0,-1.4248,-1.4256,-1.4346,-1.4314,-1.4313,-1.4303,-1.4307,-1.4359,-1.4359,-1.4323,-1.432,-1.4326,-1.4365,-1.4381,-1.4386,-1.4467,-1.4395,-1.4399,-1.4401,-1.4403,-1.4614,-1.4617,0,0,0,0,0,0,-1.4245,-1.4254,-1.4344,-1.4347,-1.4274,-1.4307,-1.4312,-1.4336,-1.4358,-1.4359,-1.4328,-1.4324,-1.4375,-1.4381,-1.4388,-1.4485,-1.4399,-1.4404,-1.4406,-1.4612,-1.4615,-1.4618,0,0,0,0,0,0,-1.4243,-1.4254,-1.4343,-1.43,-1.431,-1.4312,-1.4339,-1.4338,-1.4354,-1.4362,-1.4362,-1.4345,-1.4373,-1.4381,-1.4444,-1.4486,-1.4406,-1.441,-1.4608,-1.4613,-1.4617,-1.4679,0,0,0,0,0,0,-1.424,-1.4253,-1.4284,-1.4301,-1.4312,-1.4397,-1.4342,-1.4341,-1.4362,-1.4356,-1.4377,-1.4378,-1.4371,-1.4437,-1.4448,-1.449,-1.4413,-1.4604,-1.461,-1.4615,-1.4673,-1.4685,-1.4695,0,0,0,0,0,-1.4235,-1.4301,-1.4286,-1.4297,-1.4351,-1.44,-1.4407,-1.4397,-1.4365,-1.4396,-1.4401,-1.4378,-1.4479,-1.4444,-1.4456,-1.45,-1.4602,-1.4608,-1.4615,-1.4668,-1.4683,-1.4695,0,0,0,0,0,0,-1.429,-1.4302,-1.4286,-1.4359,-1.4378,-1.4392,-1.4431,-1.4412,-1.4442,-1.4436,-1.4423,-1.4428,-1.4494,-1.4503,-1.4464,-1.458,-1.4535,-1.4545,-1.4572,-1.4585,-1.4596,-1.4593,-1.4417,0,0,0,0,0,-1.4311,-1.4349,-1.4357,-1.4421,-1.4431,-1.443,-1.4451,-1.4441,-1.4461,-1.447,-1.4479,-1.45,-1.4537,-1.4561,-1.4595,-1.4673,-1.4678,-1.471,-1.4721,-1.473,-1.4738,-1.478,-1.4795,-1.464,-1.464,-1.464,0,0,-1.4354,-1.4365,-1.439,-1.4432,-1.4446,-1.4486,-1.4437,-1.4482,-1.4512,-1.4477,-1.4536,-1.4543,-1.4566,-1.4637,-1.4668,-1.4646,-1.4782,-1.4738,-1.4745,-1.4749,-1.4788,-1.4803,-1.4816,-1.4644,-1.4643,-1.4643,0,0,-1.4453,-1.4465,-1.4519,-1.4533,-1.4555,-1.4553,-1.4566,-1.4582,-1.4585,-1.4644,-1.4618,-1.4654,-1.4717,-1.4734,-1.4751,-1.4855,-1.4834,-1.4866,-1.4924,-1.4965,-1.4977,-1.4988,-1.5025,-1.5039,-1.4874,-1.4874,-1.4875,0,-1.4504,-1.4563,-1.4549,-1.4596,-1.4615,-1.4583,-1.4638,-1.4653,-1.4685,-1.4699,-1.4673,-1.4751,-1.4764,-1.4838,-1.4863,-1.4878,-1.4893,-1.4865,-1.4976,-1.4987,-1.4997,-1.5032,-1.5046,-1.4878,-1.4878,-1.4877,-1.4877,0,-1.4625,-1.4666,-1.4707,-1.4738,-1.4761,-1.4812,-1.4806,-1.4831,-1.4819,-1.482,-1.488,-1.4894,-1.493,-1.4947,-1.4936,-1.5019,-1.5005,-1.4978,-1.4933,-1.5015,-1.5049,-1.5062,-1.4884,-1.4882,-1.4881,-1.488,0,0,-1.4763,-1.4783,-1.4798,-1.4812,-1.4832,-1.4864,-1.4913,-1.4947,-1.4969,-1.4992,-1.5033,-1.5086,-1.5061,-1.508,-1.507,-1.5106,-1.5188,-1.5075,-1.5075,-1.5096,-1.5281,-1.5302,-1.5318,-1.5173,-1.5176,-1.5178,-1.5279,0,-1.4863,-1.4947,-1.4935,-1.5016,-1.5054,-1.5023,-1.5066,-1.5083,-1.5085,-1.5118,-1.5119,-1.5158,-1.5121,-1.5133,-1.5166,-1.5171,-1.5225,-1.5163,-1.5212,-1.5214,-1.5209,-1.5335,-1.5358,-1.5453,-1.5292,-1.5294,-1.5296,0,-1.4992,-1.5018,-1.5103,-1.5116,-1.5132,-1.517,-1.52,-1.5231,-1.525,-1.5249,-1.5269,-1.5253,-1.5302,-1.5255,-1.5322,-1.528,-1.5299,-1.5304,-1.5308,-1.5313,-1.5261,-1.5345,-1.5483,-1.5498,-1.5316,-1.5314,-1.5313,0,-1.5085,-1.5141,-1.5199,-1.5211,-1.5228,-1.5256,-1.5264,-1.528,-1.5301,-1.5327,-1.5341,-1.5372,-1.539,-1.5415,-1.5408,-1.5374,-1.5477,-1.5429,-1.5478,-1.5478,-1.5503,-1.5501,-1.5646,-1.5513,-1.5512,-1.5512,-1.5512,0,-1.5199,-1.5253,-1.5241,-1.5276,-1.5335,-1.532,-1.5379,-1.5383,-1.5397,-1.5434,-1.5409,-1.5444,-1.5431,-1.5465,-1.5459,-1.5516,-1.5524,-1.5525,-1.5523,-1.5528,-1.5528,-1.5542,-1.5535,-1.5516,-1.5515,-1.5514,-1.5514,0,-1.5314,-1.5308,-1.5369,-1.5379,-1.5383,-1.5426,-1.5435,-1.5469,-1.5467,-1.5514,-1.5524,-1.5522,-1.5561,-1.5555,-1.5598,-1.5594,-1.5665,-1.5655,-1.5659,-1.5657,-1.5707,-1.5703,-1.5867,-1.5888,-1.5739,-1.5741,-1.5742,0,-1.5388,-1.5428,-1.5442,-1.5464,-1.5475,-1.5511,-1.5531,-1.5518,-1.5541,-1.5564,-1.5595,-1.5631,-1.5659,-1.5722,-1.5725,-1.5758,-1.5749,-1.5804,-1.5754,-1.5757,-1.5751,-1.5749,-1.5753,-1.5815,-1.5816,-1.5818,-1.5819,0,-1.5521,-1.5515,-1.5546,-1.5575,-1.5601,-1.5623,-1.5644,-1.5663,-1.5651,-1.5678,-1.5717,-1.5739,-1.5782,-1.5818,-1.5848,-1.5857,-1.5837,-1.5834,-1.5847,-1.5854,-1.5855,-1.5856,-1.5688,-1.5831,-1.583,-1.5829,-1.5828,-1.5828,-1.5618,-1.5652,-1.5667,-1.5702,-1.5715,-1.5735,-1.5767,-1.5768,-1.58,-1.5834,-1.5823,-1.5867,-1.5884,-1.5922,-1.5934,-1.5969,-1.5948,-1.5967,-1.5972,-1.5978,-1.5984,-1.5848,-1.5974,-1.5974,-1.5973,-1.5973,-1.5973,0,-1.5751,-1.5758,-1.579,-1.5818,-1.5846,-1.5822,-1.5843,-1.5867,-1.5906,-1.5923,-1.595,-1.5994,-1.6029,-1.6034,-1.6067,-1.6093,-1.6084,-1.6102,-1.6101,-1.6103,-1.6,-1.5986,-1.6109,-1.6109,-1.6109,-1.6109,-1.6109,-1.6109,-1.5823,-1.5879,-1.5875,-1.5937,-1.5944,-1.5987,-1.6001,-1.6018,-1.6031,-1.6081,-1.6109,-1.6112,-1.6124,-1.6157,-1.6187,-1.6188,-1.6202,-1.6224,-1.6221,-1.6124,-1.6111,-1.6098,-1.6084,-1.6226,-1.6227,-1.6322,-1.6322,-1.6323]},{"header":{"parameterUnit":"m.s-1","parameterCategory":1,"la1":30.2991,"la2":30.254,"lo1":-89.0895,"lo2":-89.0444,"dy":0.0017,"dx":0.0017,"nx":28,"ny":28,"refTime":"2025-02-12T09:00:00:Z","depth":0,"parameterNumber":3,"parameterNumberName":"V-component_of_WINDS"},"data":[0,0,0,0,0,0,0,0,0,0,0,0,0,0,0,0,0,0,0,0,0,0,0,0,0,0,0,0,0,0,0,0,0,0,0,0,0,0,0,0,0,0,0,0,0,0,0,0,0,0,0,0,0,0,0,0,0,0,-6.887,-6.8871,0,-6.8962,-6.8963,-6.8964,-6.8881,-6.8878,-6.8874,-6.8871,-6.8962,-6.8967,-6.8973,0,0,0,0,0,0,0,0,0,0,0,0,0,-6.8618,-6.8623,-6.887,-6.8871,-6.8872,-6.8962,-6.8963,-6.8965,-6.8882,-6.8878,-6.8874,-6.887,-6.896,-6.8967,-6.8973,0,0,0,0,0,0,0,0,0,0,0,0,0,-6.872,-6.8624,-6.887,-6.8842,-6.884,-6.8962,-6.8964,-6.8965,-6.8883,-6.8878,-6.8872,-6.8868,-6.8958,-6.8966,-6.8974,-6.9127,0,0,-6.9,-6.9004,0,0,0,0,0,0,0,0,-6.8715,-6.873,-6.8845,-6.8844,-6.8842,-6.8905,-6.8908,-6.9019,-6.8884,-6.8866,-6.8871,-6.8865,-6.8947,-6.8956,-6.8984,-6.9132,-6.9135,-6.9001,-6.9006,-6.9009,-6.9012,0,0,0,0,0,0,0,-6.8708,-6.8725,-6.8906,-6.8846,-6.8845,-6.8823,-6.8832,-6.8929,-6.8934,-6.8867,-6.8862,-6.8874,-6.8945,-6.8976,-6.8986,-6.9137,-6.9,-6.9008,-6.9013,-6.9016,-6.9415,-6.942,0,0,0,0,0,0,-6.8704,-6.872,-6.8903,-6.8909,-6.8765,-6.8832,-6.8842,-6.889,-6.8933,-6.8934,-6.8878,-6.887,-6.8965,-6.8976,-6.8989,-6.9171,-6.9009,-6.9017,-6.9022,-6.9409,-6.9416,-6.9422,0,0,0,0,0,0,-6.8699,-6.8721,-6.89,-6.8813,-6.8834,-6.8842,-6.8896,-6.8894,-6.8926,-6.8941,-6.8941,-6.8909,-6.8961,-6.8977,-6.9094,-6.9173,-6.9021,-6.9028,-6.9402,-6.9411,-6.9419,-6.9537,0,0,0,0,0,0,-6.8692,-6.872,-6.8779,-6.8815,-6.8839,-6.9005,-6.8901,-6.89,-6.8941,-6.893,-6.897,-6.8972,-6.8958,-6.9082,-6.9102,-6.9182,-6.9035,-6.9395,-6.9406,-6.9416,-6.9526,-6.9548,-6.9567,0,0,0,0,0,-6.8683,-6.8807,-6.8782,-6.8805,-6.8913,-6.9009,-6.9023,-6.9006,-6.8947,-6.9006,-6.9016,-6.897,-6.9161,-6.9095,-6.9117,-6.92,-6.939,-6.9403,-6.9415,-6.9516,-6.9544,-6.9567,0,0,0,0,0,0,-6.8779,-6.8812,-6.8784,-6.8924,-6.8965,-6.8995,-6.9069,-6.9036,-6.9093,-6.9081,-6.9057,-6.9066,-6.919,-6.9206,-6.9132,-6.935,-6.9266,-6.9283,-6.9335,-6.9361,-6.9381,-6.9375,-6.9042,0,0,0,0,0,-6.8816,-6.8893,-6.8917,-6.9038,-6.906,-6.9061,-6.9103,-6.9086,-6.9127,-6.9144,-6.9162,-6.9202,-6.9271,-6.9317,-6.9381,-6.9528,-6.9535,-6.9596,-6.9616,-6.9633,-6.9649,-6.9728,-6.9755,-6.9463,-6.9463,-6.9463,0,0,-6.8894,-6.8921,-6.8971,-6.9058,-6.9087,-6.9167,-6.9076,-6.9163,-6.9222,-6.9156,-6.9268,-6.9284,-6.9327,-6.9459,-6.9519,-6.9477,-6.9731,-6.9649,-6.9663,-6.9669,-6.9743,-6.9771,-6.9796,-6.9471,-6.947,-6.9469,0,0,-6.9076,-6.9105,-6.9209,-6.9241,-6.9288,-6.9289,-6.9314,-6.935,-6.9358,-6.947,-6.9423,-6.9491,-6.961,-6.9643,-6.9676,-6.9872,-6.9832,-6.9893,-7.0001,-7.0078,-7.0101,-7.0122,-7.0192,-7.0217,-6.9909,-6.9909,-6.9909,0,-6.9167,-6.9285,-6.9267,-6.9358,-6.9397,-6.9344,-6.9449,-6.948,-6.9545,-6.9573,-6.9526,-6.9675,-6.97,-6.984,-6.9888,-6.9916,-6.9943,-6.9889,-7.01,-7.012,-7.0139,-7.0205,-7.0232,-6.9916,-6.9915,-6.9914,-6.9914,0,-6.9394,-6.9477,-6.9556,-6.9622,-6.967,-6.9768,-6.9763,-6.9813,-6.9793,-6.9798,-6.9913,-6.9942,-7.0011,-7.0043,-7.0024,-7.0181,-7.0153,-7.0104,-7.0018,-7.0174,-7.0236,-7.0262,-6.9926,-6.9924,-6.9922,-6.992,0,0,-6.9639,-6.9695,-6.9724,-6.9753,-6.9801,-6.9865,-6.9959,-7.0029,-7.0073,-7.012,-7.0198,-7.0301,-7.0255,-7.0292,-7.0276,-7.0344,-7.0498,-7.0285,-7.0286,-7.0324,-7.0673,-7.071,-7.074,-7.0471,-7.0476,-7.048,-7.0669,0,-6.9823,-6.999,-6.9977,-7.0134,-7.021,-7.0161,-7.0243,-7.0281,-7.0289,-7.0354,-7.0361,-7.0434,-7.0368,-7.039,-7.0455,-7.0465,-7.0567,-7.0451,-7.0544,-7.0547,-7.0535,-7.0772,-7.0812,-7.0989,-7.0693,-7.0697,-7.07,0,-7.0061,-7.0118,-7.0284,-7.0321,-7.0353,-7.0428,-7.049,-7.0553,-7.0595,-7.0595,-7.0638,-7.061,-7.0704,-7.0617,-7.0747,-7.0669,-7.0706,-7.0716,-7.0723,-7.0731,-7.0633,-7.0787,-7.1045,-7.1072,-7.0738,-7.0735,-7.0732,0,-7.0223,-7.0341,-7.0456,-7.0483,-7.0529,-7.0583,-7.0604,-7.0641,-7.0684,-7.0739,-7.0766,-7.083,-7.0865,-7.0915,-7.0905,-7.0843,-7.1038,-7.095,-7.104,-7.1041,-7.1084,-7.1081,-7.1352,-7.1107,-7.1107,-7.1107,-7.1106,0,-7.0431,-7.0534,-7.053,-7.06,-7.0714,-7.0697,-7.081,-7.0825,-7.0859,-7.093,-7.089,-7.0958,-7.0941,-7.1008,-7.1,-7.1109,-7.1125,-7.1128,-7.1124,-7.1132,-7.1131,-7.1155,-7.1143,-7.1114,-7.1112,-7.1111,-7.1109,0,-7.0631,-7.0633,-7.0754,-7.0789,-7.08,-7.0883,-7.0912,-7.0978,-7.0982,-7.1073,-7.1094,-7.11,-7.1177,-7.1172,-7.1258,-7.1253,-7.1388,-7.137,-7.1375,-7.1371,-7.1462,-7.1453,-7.1757,-7.1796,-7.1527,-7.1529,-7.1531,0,-7.0764,-7.0843,-7.0887,-7.0933,-7.0958,-7.1033,-7.1077,-7.1063,-7.111,-7.1164,-7.1224,-7.1297,-7.1355,-7.148,-7.1492,-7.1558,-7.1541,-7.1643,-7.1551,-7.1555,-7.1543,-7.1539,-7.1546,-7.1661,-7.1664,-7.1667,-7.1669,0,-7.0999,-7.0996,-7.1062,-7.1129,-7.1183,-7.1235,-7.1281,-7.1321,-7.1312,-7.1367,-7.1446,-7.1491,-7.158,-7.1654,-7.1717,-7.1737,-7.1702,-7.1698,-7.1722,-7.1731,-7.173,-7.1732,-7.1424,-7.1691,-7.1689,-7.1687,-7.1686,-7.1685,-7.117,-7.1238,-7.128,-7.1355,-7.1389,-7.1434,-7.1498,-7.1511,-7.1578,-7.165,-7.1637,-7.1726,-7.1766,-7.1847,-7.1874,-7.1942,-7.1905,-7.1941,-7.195,-7.1959,-7.1969,-7.172,-7.1953,-7.1953,-7.1952,-7.1951,-7.1951,0,-7.1404,-7.1429,-7.1498,-7.1566,-7.1625,-7.1588,-7.1638,-7.1689,-7.1768,-7.1809,-7.1868,-7.1959,-7.203,-7.2048,-7.2116,-7.2167,-7.2153,-7.2185,-7.2181,-7.2187,-7.1998,-7.197,-7.2196,-7.2196,-7.2196,-7.2196,-7.2196,-7.2196,-7.1532,-7.1646,-7.1648,-7.1777,-7.1801,-7.1889,-7.1921,-7.1962,-7.1994,-7.2098,-7.2158,-7.217,-7.2201,-7.2271,-7.2335,-7.2338,-7.2365,-7.2404,-7.2401,-7.2225,-7.22,-7.2177,-7.215,-7.241,-7.2411,-7.2584,-7.2586,-7.2587]}]]